Regional Weather Roundup
Issued by NWS Little Rock, AR

Home | Current Version | Previous Version | Graphics & Text | Print | Product List | Glossary On
Versions: 1 2 3 4 5 6 7 8 9 10 11 12 13 14 15 16 17 18 19 20 21 22 23 24 25 26 27 28 29 30 31 32 33 34 35 36 37 38 39 40 41 42 43 44 45 46 47 48 49 50
000
ASUS44 KLZK 220805
RWRLZK

WEATHER ROUNDUP FOR ARKANSAS
NATIONAL WEATHER SERVICE LITTLE ROCK AR
300 AM CDT MON SEP 22 2014

NOTE: "FAIR" INDICATES FEW OR NO CLOUDS BELOW 12,000 FEET WITH NO
SIGNIFICANT WEATHER AND/OR OBSTRUCTIONS TO VISIBILITY.

ARZ001-003-010-029-220900-
NORTHWEST ARKANSAS

CITY           SKY/WX    TMP DP  RH WIND       PRES   REMARKS
FAYETTEVILLE   CLEAR     51  51 100 CALM      30.22R
FORT SMITH     CLEAR     60  55  83 CALM      30.18R
HARRISON       CLEAR     56  49  77 NW3       30.22S
BENTONVILLE    CLEAR     57  48  72 NE6       30.22S
ROGERS         CLEAR     57  49  74 NE3       30.23S
SILOAM SPGS    CLEAR     59  46  63 NE6       30.23S
HIGHFILL       CLEAR     55  50  83 CALM      30.22S
$$

ARZ004-005-016-220900-
NORTH CENTRAL ARKANSAS

CITY           SKY/WX    TMP DP  RH WIND       PRES   REMARKS
BATESVILLE     CLEAR     61  48  63 NW3       30.16S
FLIPPIN        CLEAR     59  46  63 CALM      30.20S
MTN HOME       CLEAR     59  49  69 NE3       30.19S
$$

ARZ040-041-220900-
WEST CENTRAL ARKANSAS

CITY           SKY/WX    TMP DP  RH WIND       PRES   REMARKS
MENA             N/A     63  55  77 CALM      30.18R
MOUNT IDA      CLEAR     60  56  86 CALM      30.14S
$$

ARZ009-017-025-026-028-220900-
NORTHEAST ARKANSAS

CITY           SKY/WX    TMP DP  RH WIND       PRES   REMARKS
CORNING          N/A     57  50  77 N6        30.17S
JONESBORO      CLEAR     65  50  58 N10       30.14S
NEWPORT        CLEAR     57  52  84 N5        30.16S
WALNUT RIDGE   CLEAR     57  32  38 N9        30.14F
BLYTHEVILLE    CLEAR     56  54  93 N8        30.14R
$$

ARZ022-023-033-042-044-220900-
CENTRAL ARKANSAS

CITY           SKY/WX    TMP DP  RH WIND       PRES   REMARKS
LITTLE ROCK    CLEAR     65  49  56 N7        30.15R
N LITTLE ROCK    N/A     64  53  67 N8        30.15R
JACKSONVILLE   CLEAR     63  51  64 N5        30.15R
SEARCY         CLEAR     62  50  65 N5        30.16R
HOT SPRINGS    CLEAR     70  48  45 NE9       30.15R
RUSSELLVILLE   CLEAR     56  54  93 CALM      30.17R
CLINTON        FAIR      55  54  94 CALM      30.18S
$$

ARZ036-220900-
EAST ARKANSAS

CITY           SKY/WX    TMP DP  RH WIND       PRES   REMARKS
WEST MEMPHIS   CLEAR     60  54  80 N7        30.11R
$$

ARZ050-053-066-070-073-220900-
SOUTHWEST ARKANSAS

CITY           SKY/WX    TMP DP  RH WIND       PRES   REMARKS
ARKADELPHIA    FAIR      68  58  70 N3        30.13S
CAMDEN         CLEAR     68  55  64 NE5       30.11R
TEXARKANA      MOCLDY    73  62  68 NE7       30.12R
EL DORADO      PTCLDY    72  62  71 N10       30.09F
DE QUEEN       CLEAR     66  59  78 NE3       30.12R
$$

ARZ056-057-069-220900-
SOUTHEAST ARKANSAS

CITY           SKY/WX    TMP DP  RH WIND       PRES   REMARKS
PINE BLUFF     PTCLDY    66  51  58 N10       30.12S
STUTTGART      CLEAR     61  52  72 N10       30.13S
MONTICELLO     CLEAR     70  53  54 N3        30.09S

$$





USA.gov is the U.S. government's official web portal to all federal, state and local government web resources and services.